AirNav   Everest Fuels
 
 1020 users online  

67AK South Hollywood Airport
Wasilla, Alaska, USA

GOING TO WASILLA?


FAA INFORMATION EFFECTIVE 18 JUNE 2020

Location

FAA Identifier: 67AK
Lat/Long: 61-32-04.7000N 149-40-12.3600W
61-32.078333N 149-40.206000W
61.5346389,-149.6701000
(estimated)
Elevation: 375 ft. / 114 m (estimated)
From city: 5 miles W of WASILLA, AK
Time zone: UTC -8 (UTC -9 during Standard Time)
Zip code: 99652

Airport Operations

Airport use: Private use. Permission required prior to landing
Activation date: 05/2004
Control tower: no
ARTCC: ANCHORAGE CENTER
FSS: KENAI FLIGHT SERVICE STATION [907-283-7211]
Attendance: UNATNDD
Segmented circle: no

Airport Communications

CTAF: 122.8
WX AWOS-3P at IYS (4 nm NE): 135.25 (907-373-3801)
WX AWOS-3P at BCV (8 nm SE): 135.55 (907-688-0826)
WX ASOS at FRN (16 nm S): 134.25
WX ASOS at PAQ (17 nm E): 134.75 (907-746-6675)
WX ASOS at MRI (20 nm S): 124.25 (907-271-5277)

Nearby radio navigation aids

VOR radial/distance  VOR name  Freq  Var
BGQr085/8.7BIG LAKE VORTAC112.5019E
TEDr003/23.5ANCHORAGE VOR/DME113.1518E

 
NDB name  Hdg/Dist  Freq  Var  ID
CAMPBELL LAKE010/24.433816ECMQ -.-. -- --.-

Airport Services

Runway Information

Runway E/W

Dimensions: 2640 x 240 ft. / 805 x 73 m
Surface: gravel
RUNWAY E  RUNWAY W
Traffic pattern: leftleft
Obstructions: 40 ft. trees40 ft. trees

Airport Ownership and Management from official FAA records

Ownership: Privately-owned
Owner: CROSS CREEK, INC
BOX 870948
WASILLA, AK 99687
Phone 907-376-2697
Manager: RODNEY WILLIS
4247 S EIDER CIR.
WASILLA, AK 99654
Phone (907) 357-5847

Airport Operational Statistics

Aircraft based on the field: 7
Single engine airplanes: 6
Helicopters: 1
    

Instrument Procedures

There are no published instrument procedures at 67AK.

Some nearby airports with instrument procedures:

PAGQ - Big Lake Airport (4 nm W)
PAWS - Wasilla Airport (4 nm NE)
PAFR - Bryant Army Airfield Heliport (16 nm S)
PAAQ - Warren "Bud" Woods Palmer Municipal Airport (17 nm E)
PAUO - Willow Airport (17 nm NW)
PAED - Elmendorf Air Force Base (17 nm S)
PAMR - Merrill Field Airport (20 nm S)
 
Loc | Ops | Rwys | IFR | FBO | Links
Com | Nav | Svcs | Stats | Notes

Crowley
 
Area around 67AK (South Hollywood Airport)
 
Road maps at: MapQuest Bing Google
 
Aerial photo
WARNING: Photo may not be current or correct
Aerial photo of 67AK (South Hollywood Airport)
Do you have a better or more recent aerial photo of South Hollywood Airport that you would like to share? If so, please send us your photo.

 
Sectional chart

 
Airport distance calculator
Flying to South Hollywood Airport? Find the distance to fly.

From to 67AK

Sunrise and sunset
Times for 11-Jul-2020
 Local
(UTC-8)
 Zulu
(UTC)
Morning civil twilight02:5310:53
Sunrise04:4212:42
Sunset23:2707:27
Evening civil twilight01:1609:16

Current date and time
Zulu (UTC)  11-Jul-2020 16:47:34
Local (UTC-8)  11-Jul-2020 08:47:34
 
METAR
PABV 
8nm SE 
111556Z AUTO 08005KT 10SM OVC065 14/13 A2976 RMK AO2 SLP083 T01440128
PAFR 
16nm S 
111618Z AUTO 00000KT 10SM OVC036 14/12 A2973 RMK AO2 SLP073
PAAQ 
17nm E 
111622Z 13006KT 10SM -RA FEW003 SCT050 OVC080 12/12 A2976 RMK AO2 RAB1555 P0001 T01220117 $
PAED 
17nm S 
111556Z AUTO 00000KT 10SM SCT035 OVC044 14/12 A2975 RMK AO2 SLP070 T01420121 $
PAMR 
20nm S 
111553Z 29004KT 10SM FEW035 OVC046 14/11 A2974 RMK AO2 SLP072 T01440106
TAF
PAAQ 
17nm E 
111133Z 1112/1212 VRB04KT P6SM VCSH BKN035 BKN050 OVC080 FM112200 14006KT P6SM -SHRA VCTS BKN060CB FM120600 13006KT P6SM -SHRA BKN060
PAED 
17nm S 
111000Z 1110/1216 VRB05KT 9999 FEW010 BKN030 QNH2972INS BECMG 1119/1120 24009KT 9999 VCSH BKN050 QNH2970INS BECMG 1201/1202 25009KT 8000 -SHRA BKN040 QNH2970INS BECMG 1207/1208 VRB04KT 9999 VCSH BKN040 QNH2972INS TX20/1202Z TN13/1113Z
NOTAMs
Click for the latest NOTAMs
NOTAMs are issued by the DoD/FAA and will open in a separate window not controlled by AirNav.

 

 
 

Would you like to see your business listed on this page?

 If your business provides an interesting product or service to pilots, flight crews, aircraft, or users of the South Hollywood Airport, you should consider listing it here.  To start the listing process, click on the button below
 
Add a business
 

Other Pages about South Hollywood Airport

Update a link
 
Copyright © AirNav, LLC. All rights reserved. Privacy Policy  Contact